Simultaneous Nadir Overpasses (SNOs) Predictions

Prediction of SNOs between NOAA-20 and METOP-B Satellite Orbit:

Table of predicted SNOs for the next 14.0 days since TLE Epoch: 4/9/2019
Index Date (NOAA-20) Time (NOAA-20) Lat,Lon (NOAA-20) SZA (NOAA-20 ) Date (METOP-B) Time (METOP-B) Lat,Lon (METOP-B) SZA (METOP-B ) Distance(km) Time Diff (sec)
1 04/20/2019 08:53:25 -73.57,-143.21 117.74 04/20/2019 08:54:31 -73.52,-140.27 117.93 93.03 66
2 04/20/2019 09:44:07 73.38, 24.53 62.04 04/20/2019 09:45:15 73.31, 26.59 61.87 66.06 68
3 04/20/2019 10:34:49 -73.28,-167.92 118.09 04/20/2019 10:35:59 -73.20,-166.32 118.25 52.03 70
4 04/20/2019 11:25:30 73.08, -0.19 61.69 04/20/2019 11:26:42 72.99, 0.54 61.55 26.22 72
5 04/20/2019 12:16:12 -72.98, 167.34 118.44 04/20/2019 12:17:25 -72.93, 167.75 118.52 14.41 73
6 04/20/2019 13:06:55 72.84, -25.04 61.40 04/20/2019 13:08:06 72.87, -25.05 61.41 3.24 71
7 04/20/2019 13:57:39 -72.84, 142.28 118.62 04/20/2019 13:58:48 -72.86, 142.27 118.61 3.02 69
8 04/20/2019 14:48:25 72.84, -50.43 61.38 04/20/2019 14:49:28 72.85, -50.43 61.37 0.42 63
9 04/20/2019 15:39:09 -72.84, 116.89 118.64 04/20/2019 15:40:10 -72.84, 116.88 118.65 0.26 61
10 04/20/2019 16:29:55 72.85, -75.82 61.36 04/20/2019 16:30:50 72.83, -75.82 61.33 2.47 55
11 04/20/2019 17:20:39 -72.85, 91.50 118.66 04/20/2019 17:21:32 -72.82, 91.50 118.69 2.61 53
12 04/20/2019 18:11:24 72.80,-101.10 61.29 04/20/2019 18:12:12 72.81,-101.20 61.29 3.33 48
13 04/20/2019 19:02:08 -72.80, 66.22 118.73 04/20/2019 19:02:54 -72.80, 66.12 118.73 3.28 46
14 04/20/2019 19:52:54 72.81,-126.48 61.27 04/20/2019 19:53:33 72.84,-126.47 61.29 3.15 39
15 04/20/2019 20:43:38 -72.81, 40.84 118.75 04/20/2019 20:44:15 -72.84, 40.85 118.73 3.04 37
16 04/20/2019 21:34:24 72.82,-151.87 61.25 04/20/2019 21:34:55 72.82,-151.85 61.25 0.61 31
17 04/20/2019 22:25:08 -72.81, 15.45 118.76 04/20/2019 22:25:37 -72.82, 15.47 118.77 0.61 29
18 04/20/2019 23:15:54 72.82,-177.26 61.24 04/20/2019 23:16:17 72.80,-177.23 61.21 2.66 23
19 04/21/2019 00:06:38 -72.82, -9.94 118.78 04/21/2019 00:06:59 -72.80, -9.91 118.81 2.71 21
20 04/21/2019 00:57:23 72.78, 157.46 61.16 04/21/2019 00:57:39 72.78, 157.38 61.17 2.58 16
21 04/21/2019 01:48:07 -72.78, -35.22 118.86 04/21/2019 01:48:21 -72.78, -35.29 118.85 2.51 14
22 04/21/2019 02:38:53 72.78, 132.08 61.15 04/21/2019 02:39:00 72.81, 132.11 61.17 3.23 7
23 04/21/2019 03:29:37 -72.78, -60.60 118.87 04/21/2019 03:29:42 -72.81, -60.57 118.85 3.23 5
24 04/21/2019 04:20:23 72.79, 106.69 61.13 04/21/2019 04:20:22 72.79, 106.73 61.13 1.30 1
25 04/21/2019 05:11:07 -72.79, -85.99 118.89 04/21/2019 05:11:04 -72.79, -85.95 118.89 1.36 3
26 04/21/2019 06:01:53 72.79, 81.30 61.11 04/21/2019 06:01:44 72.77, 81.35 61.09 3.04 9
27 04/21/2019 06:52:37 -72.79,-111.38 118.91 04/21/2019 06:52:26 -72.77,-111.33 118.93 3.02 11
28 04/21/2019 07:43:22 72.75, 56.02 61.04 04/21/2019 07:43:06 72.75, 55.97 61.04 1.82 16
29 04/21/2019 08:34:06 -72.75,-136.66 118.98 04/21/2019 08:33:48 -72.75,-136.71 118.97 1.74 18
30 04/21/2019 09:24:52 72.76, 30.64 61.02 04/21/2019 09:24:28 72.73, 30.59 61.00 3.16 24
31 04/21/2019 10:15:36 -72.75,-162.04 119.00 04/21/2019 10:15:10 -72.73,-162.09 119.02 3.02 26
32 04/21/2019 11:06:22 72.76, 5.25 61.00 04/21/2019 11:05:49 72.76, 5.31 61.01 2.04 33
33 04/21/2019 11:57:06 -72.76, 172.57 119.02 04/21/2019 11:56:31 -72.76, 172.63 119.01 2.14 35
34 04/21/2019 12:47:51 72.72, -20.03 60.93 04/21/2019 12:47:11 72.74, -20.07 60.96 3.14 40
35 04/21/2019 13:38:35 -72.71, 147.29 119.09 04/21/2019 13:37:53 -72.74, 147.25 119.05 3.23 42
36 04/21/2019 14:29:21 72.72, -45.42 60.91 04/21/2019 14:28:33 72.72, -45.45 60.92 1.05 48
37 04/21/2019 15:20:05 -72.72, 121.90 119.11 04/21/2019 15:19:15 -72.72, 121.87 119.10 0.95 50
38 04/21/2019 16:10:51 72.73, -70.81 60.89 04/21/2019 16:09:55 72.70, -70.83 60.88 2.94 56
39 04/21/2019 17:01:35 -72.73, 96.52 119.13 04/21/2019 17:00:37 -72.70, 96.49 119.14 2.71 58
40 04/21/2019 17:52:21 72.73, -96.19 60.88 04/21/2019 17:51:16 72.73, -96.11 60.88 2.80 65
41 04/21/2019 18:43:05 -72.73, 71.13 119.14 04/21/2019 18:41:58 -72.73, 71.22 119.13 2.93 67
42 04/21/2019 19:33:50 72.69,-121.47 60.80 04/21/2019 19:32:38 72.71,-121.49 60.84 2.82 72
43 04/21/2019 20:24:34 -72.69, 45.85 119.22 04/21/2019 20:23:20 -72.71, 45.84 119.17 3.04 74
44 04/21/2019 21:15:16 72.49,-146.45 60.57 04/21/2019 21:14:04 72.49,-147.28 60.62 27.98 72
45 04/21/2019 22:05:59 -72.44, 20.97 119.51 04/21/2019 22:04:47 -72.44, 19.94 119.44 34.61 72
46 04/21/2019 22:56:40 72.19,-171.23 60.22 04/21/2019 22:55:31 72.21,-173.17 60.35 65.94 69
47 04/21/2019 23:47:23 -72.14, -3.81 119.85 04/21/2019 23:46:14 -72.17, -5.94 119.71 72.41 69




NCC Satellite Simultaneous Nadir Overpasses (SNOs) Prediction Service
